Smyrna, TN

8:56 PM CST on December 14, 2019 (GMT -0600)
Smyrna

Weather History for KMQY - October, 2019

Change the Weather History Date:

Friday, October 11, 2019

  Actual Average Record
Temperature  
Mean Temperature 65 °F -  
Max Temperature 84 °F 69 °F 92 °F (2010)
Min Temperature 48 °F 51 °F 36 °F (2012)
Growing Degree Days 15 (Base 50)    
Moisture  
Dew Point 56 °F    
Average Humidity 77    
Maximum Humidity 94    
Minimum Humidity 42    
Precipitation  
Precipitation 0.05 in - - ()
Sea Level Pressure  
Sea Level Pressure 30.08 in    
Wind  
Wind Speed 8 mph (SW)    
Max Wind Speed 20 mph    
Max Gust Speed 23 mph    
Visibility 9 miles    
Events Rain    
Averages and records for this station are not official NWS values.
T = Trace of Precipitation, MM = Missing Value Source: NWS Daily Summary

Daily Weather History Graph

Daily Weather History Graph

Search for Another Location

Airport or City:

Astronomy

Oct. 11, 2019 Rise Set
Actual Time 6:49 AM CDT 6:15 PM CDT
Civil Twilight 6:23 AM CDT 6:41 PM CDT
Nautical Twilight 5:53 AM CDT 7:11 PM CDT
Astronomical Twilight 5:24 AM CDT 7:40 PM CDT
Moon 5:39 PM CDT (10/11) 4:36 AM CDT (10/11)
Length of Visible Light 12h 18m
Length of Day
11h 26m
Waxing Gibbous, 96% of the Moon is Illuminated
Oct 11
Waxing Gibbous
Oct 13
Full
Oct 21
Last Quarter
Oct 27
New
Nov 4
First Quarter

Hourly Weather History & Observations

Time (CDT) Temp. Heat Index Dew Point Humidity Pressure Visibility Wind Dir Wind Speed Gust Speed Precip Events Conditions
12:56 AM 64.0 °F - 61.0 °F 90% 30.07 in 10.0 mi Calm Calm - N/A   Mostly Cloudy
1:56 AM 66.0 °F - 62.1 °F 87% 30.06 in 10.0 mi SSE 4.6 mph - N/A   Clear
2:56 AM 66.9 °F - 62.1 °F 84% 30.06 in 10.0 mi SSE 4.6 mph - N/A   Scattered Clouds
3:56 AM 66.0 °F - 61.0 °F 84% 30.05 in 10.0 mi SE 3.5 mph - N/A   Mostly Cloudy
4:56 AM 64.0 °F - 61.0 °F 90% 30.07 in 10.0 mi SE 3.5 mph - N/A   Overcast
5:56 AM 64.0 °F - 61.0 °F 90% 30.07 in 10.0 mi SE 8.1 mph - N/A   Overcast
6:56 AM 66.0 °F - 60.1 °F 81% 30.09 in 10.0 mi SE 4.6 mph - N/A   Scattered Clouds
7:56 AM 69.1 °F - 59.0 °F 70% 30.10 in 10.0 mi South 10.4 mph - N/A   Mostly Cloudy
8:56 AM 71.1 °F - 59.0 °F 66% 30.10 in 10.0 mi SSE 12.7 mph 19.6 mph N/A   Mostly Cloudy
9:56 AM 75.9 °F - 59.0 °F 56% 30.10 in 10.0 mi SSE 11.5 mph 19.6 mph N/A   Mostly Cloudy
10:56 AM 79.0 °F - 57.9 °F 48% 30.09 in 10.0 mi South 9.2 mph 18.4 mph N/A   Scattered Clouds
11:56 AM 80.1 °F 80.6 °F 57.9 °F 47% 30.08 in 10.0 mi South 12.7 mph - N/A   Clear
12:56 PM 81.0 °F 81.0 °F 57.0 °F 44% 30.04 in 10.0 mi South 10.4 mph 23.0 mph N/A   Clear
1:56 PM 81.0 °F 81.1 °F 57.9 °F 45% 30.01 in 10.0 mi South 8.1 mph 18.4 mph N/A   Overcast
2:56 PM 82.0 °F 81.7 °F 57.0 °F 42% 30.00 in 10.0 mi South 11.5 mph 18.4 mph N/A   Mostly Cloudy
3:56 PM 81.0 °F 81.1 °F 57.9 °F 45% 29.99 in 10.0 mi South 4.6 mph - N/A   Mostly Cloudy
4:56 PM 79.0 °F - 57.9 °F 48% 30.01 in 10.0 mi SSW 6.9 mph - 0.00 in Rain Light Rain
5:56 PM 73.9 °F - 66.0 °F 76% 30.01 in 10.0 mi West 4.6 mph - 0.00 in   Overcast
6:56 PM 69.1 °F - 64.9 °F 87% 30.03 in 10.0 mi WSW 9.2 mph - 0.00 in Rain Light Rain
7:56 PM 69.1 °F - 64.9 °F 87% 30.03 in 10.0 mi WSW 6.9 mph - 0.00 in   Overcast
8:26 PM 60.8 °F - 57.2 °F 88% 30.06 in 3.0 mi NW 19.6 mph - 0.00 in Rain Light Rain
8:56 PM 57.0 °F - 55.0 °F 93% 30.11 in 9.0 mi NW 13.8 mph - 0.00 in Rain Light Rain
9:39 PM 53.6 °F - 51.8 °F 94% 30.11 in 10.0 mi NNW 17.3 mph - 0.00 in   Overcast
9:46 PM 53.6 °F - 50.0 °F 88% 30.12 in 10.0 mi NW 15.0 mph - 0.00 in Rain Light Rain
9:56 PM 52.0 °F - 50.0 °F 93% 30.14 in 8.0 mi NW 16.1 mph 21.9 mph 0.00 in Rain Light Rain
10:06 PM 51.8 °F - 50.0 °F 94% 30.13 in 5.0 mi NW 18.4 mph 23.0 mph 0.01 in Rain Light Rain
10:26 PM 51.8 °F - 48.2 °F 88% 30.13 in 4.0 mi NW 12.7 mph - 0.02 in Rain Light Rain
10:56 PM 51.1 °F - 48.9 °F 92% 30.16 in 10.0 mi NNW 13.8 mph 21.9 mph 0.03 in Rain Light Rain
11:29 PM 50.0 °F - 48.2 °F 94% 30.16 in 6.0 mi NNW 12.7 mph 23.0 mph 0.01 in Rain Light Rain
11:39 PM 50.0 °F - 48.2 °F 94% 30.16 in 6.0 mi NNW 10.4 mph - 0.01 in Rain Rain
11:56 PM 48.9 °F - 46.9 °F 93% 30.18 in 5.0 mi NW 11.5 mph - 0.02 in Rain Light Rain
11:59 PM 48.2 °F - 46.4 °F 93% 30.17 in 7.0 mi NW 13.8 mph - 0.00 in Rain Light Rain